STARLINK-11511, 62468

Orbit data source: Space-Track

STARLINK-11511, 62468 is a payload satellite owned by SpaceX/Seattle (US) in LEO that was launched on Tue, 31 Dec 2024 UTC via an FALCON 9 launch vehicle from the Air Force Eastern Test Range (AFETR). Payload-class satellites include a variety of spacecraft equipped with specific instruments for various scientific and technological missions. These include communications satellites like Starlink; space stations such as the ISS; scientific satellites like the Hubble; Earth observation satellites from companies like Planet Labs, Umbra, and HawkEye 360; GPS; miniature CubeSats for education and research; and military/defense satellites.

Loading next visibility...
Identifier
62468, 2024-254G
Orbit
LEO
Last TLE update
16 hours ago
Origin
Manufacturer
SpaceX/Seattle
Mission
Operational Commercial Communications
Bus & Motor
STARLINK V2M, Unknown motor
Mass
730 kg wet, ~700 kg dry
Launch date (UTC)
2024-12-31 (6 months ago)
Launch vehicle
FALCON 9
Launch site
Air Force Eastern Test Range (AFETR)
Object type
Payload
Rocket body
Debris
Shape & HBR
Box + 2 Pan, 29 m
Radar Cross Section
36.964 m², Large (>1 m²)

Expand to show TLE details & history

TLE from 16 hours ago
0 STARLINK-11511
1 62468U 24254G   25186.24056785  .00178172  00000-0  13595-2 0  9993
2 62468  42.9979 274.5458 0001663 204.9334 155.1454 15.70891930 30487
Epoch: 2025-07-05T05:46Z
TLE epoch observation values (Epoch: 2025-07-05T05:46:25.062Z)
Latitude
0.00003°
Longitude
-95.54004°
Altitude
357.134 km
Speed
7.696 km/s
True Right ascension
18h 18m 10s
True Declination
0° 00' 00"
Sunlit
Object was in full shadow at epoch
Visualization orbit readout
Latitude
-43.13715°
Longitude
172.55364°
Altitude
368.427 km
Speed
7.689 km/s
Apparent Right ascension
17h 06m 09s
Apparent Declination
-73° 11' 49"
Sunlit
Object is in daylight
Visualization observer readout
Local Sidereal Time
10:07:06
Azimuth
157.858° S
Elevation
-42.126°
Doppler factor
1
Orbital elements
Apogee altitude
359.449 km
Perigee altitude
357.208 km
Semi-major axis
6,736.466 km
Eccentricity
0.00017
Inclination
42.9979°
RAAN
274.5458°
Arg. of periapsis
204.9334°
True anomaly
Unknown
Mean anomaly
155.1454°
Eccentric anomaly
Unknown
Mean motion
3.9255 °/min
Orbital period
91.71 mins
BSTAR
0.0013595
Loading maneuver chart data...
Loading SW <> Apogee altitude chart data...
Loading historical data...
Loading historical data...
Loading historical data...
Loading historical data...
Loading historical data...
Loading historical data...
Loading historical data...

STARLINK-11511 Visibility forecast

Observer location: undefined°, undefined°

Span
Click to sort rows by Start time (UTC) header in descending order
Start Az.
Max El. time (UTC)
Max El. Az.
Max El.
End time (UTC)
End Az.
5 mins2025-07-06 09:27:57.532Z230.242° WSW2025-07-06 09:29:57.532Z187.612° SSW35.649°2025-07-06 09:32:57.532Z79.722° E
4 mins2025-07-06 11:04:57.532Z286.503° WNW2025-07-06 11:06:57.532Z27.443° NE34.102°2025-07-06 11:08:57.532Z67.122° ENE
4 mins2025-07-06 12:40:57.532Z297.976° NW2025-07-06 12:42:57.532Z25.472° NE37.83°2025-07-06 12:44:57.532Z84.302° E
|